WEINA 2 (47303 NORAD) Tracking and Keplerian Element Data
This shows tracking and keplerian element data for the satellite.
Feedback or suggestion? Click here.
Element | Value |
Catalog | 47303 |
Name | WEINA 2 |
Epoch Orbit | 937 |
Epoch Day | 60.86593957 |
Epoch Year | 2021 |
RAAN | 310.6047 |
Inclination | 98.268 |
Eccentricity | 0.0001158 |
Argument of Perigee | 59.8244 |
Mean Anonmoly | 300.3074 |
Mean Motion | 14.59138233 |
Decay Rate | 2.03E-06 |
L1 | 1 47303U 20103B 21060.86593957 .00000203 00000-0 53111-4 0 9994 |
L2 | 2 47303 98.2680 310.6047 0001158 59.8244 300.3074 14.59138233 9375 |
Live tracking and technical data element details for WEINA 2 (NORAD 47303). WEINA 2 can be tracked NOW for your location showing map with azimuth and elevation plus other details from your city location.
Track the satellite on the map from your city or location and see movement details for azimuth, elevation, latitude, longitude, range, height, and movement on the map or in text.
IsCatalogInMostPopularTable: catalog: 47303, numindb: 21
Update: records affected: 1
GetName: 47303 WEINA 2
Hit Count: updated at: Tue, 02 Mar 2021 14:45:45 GMT